Helena Regional Airport Helena US
ICAO: KHLN
IATA: HLN
Category: Medium
Scheduled Services: Yes

Elevation: 3877 ft
TransAlt. 18000 ft.

Airport Communications:
APP/DEP:119.5
ATIS:120.4
CTAF:118.3
GND:121.9
ARNG OPS:40.65
GREAT FALLS RDO:122.55
TWR:118.3
UNICOM:122.95

KHLN Zoom In..

Runways:

(A) RW 05 length 4644 ft width 75 ft
---- / hdg 50

(B) RW 09 length 9000 ft width 150 ft
---- / hdg 87

(C) RW 16 length 2989 ft width 75 ft
---- / hdg 163

(D) RW 23 length 4644 ft width 75 ft
---- / hdg 230

(E) RW 27 length 9000 ft width 150 ft
ILS 110.10 / hdg 267

(F) RW 34 length 2989 ft width 75 ft
---- / hdg 343

Location; KHLN
Day. 23 / Time. 07.53 Zulu
* Altimeter: 30.28
* Temperature: 17° c. 62.6°f.
* Wind from: 250° Speed 07 kn.
Dewpoint: 03° c.
Visibility: 10 Statute Miles.
Clouds: Clear (automated report).

KHLN 230753Z AUTO 25007KT 10SM CLR 17/03 A3028 RMK AO2 SLP236 T01670028


Wind From 250°
Speed 07 kn.

 
 
jpsmedia.com for Web Design worldairports.se 2018   terms of use